Weather History for Brno, Czech Republic

Change the Weather History Date:

Thursday, February 28, 2013

  Actual Average Record
Temperature  
Mean Temperature 38 °F -  
Max Temperature 44 °F 46 °F - ()
Min Temperature 31 °F 32 °F - ()
Degree Days  
Heating Degree Days 28    
Moisture  
Dew Point 30 °F    
Average Humidity 76    
Maximum Humidity 93    
Minimum Humidity 55    
Precipitation  
Precipitation 0.00 in 0.03 in - ()
Sea Level Pressure  
Sea Level Pressure 30.26 in    
Wind  
Wind Speed 5 mph ()    
Max Wind Speed 14 mph    
Max Gust Speed -    
Visibility 4.2 miles    
Events      
T = Trace of Precipitation, MM = Missing Value Source: Averaged Metar Reports

Daily Weather History Graph

Daily Weather History Graph

Search for Another Location

Airport:

Trip Planner

Search our weather history database for the weather conditions in past years. The results will help you decide how hot, cold, wet, or windy it might be!

Date:

Astronomy

Feb. 28, 2013 Rise Set
Actual Time 6:37 AM CET 5:34 PM CET
Civil Twilight 6:05 AM CET 6:06 PM CET
Nautical Twilight 5:28 AM CET 6:43 PM CET
Astronomical Twilight 4:52 AM CET 7:20 PM CET
Moon 9:04 PM CET (2/28) 7:18 AM CET (2/28)
Length of Visible Light 12h 01m
Length of Day
10h 57m
Waning Gibbous, 92% of the Moon is Illuminated
Feb 28
Waning Gibbous
Mar 4
Last Quarter
Mar 11
New
Mar 19
First Quarter
Mar 27
Full

Hourly Weather History & Observations

Time (CET) Temp. Windchill Dew Point Humidity Pressure Visibility Wind Dir Wind Speed Gust Speed Precip Events Conditions
12:00 AM 35.6 °F 30.7 °F 28.4 °F 75% 30.33 in - North 5.8 mph - N/A   Clear
12:30 AM 35.6 °F 30.7 °F 28.4 °F 75% 30.33 in - North 5.8 mph - N/A   Clear
1:00 AM 35 °F - 28 °F 66% 30.38 in 6 mi NNE 4.5 mph - -   Scattered Clouds
1:00 AM 35.6 °F 31.7 °F 28.4 °F 75% 30.33 in 6.2 mi NE 4.6 mph - N/A   Partly Cloudy
1:30 AM 33.8 °F 30.8 °F 28.4 °F 81% 30.33 in - North 3.5 mph - N/A   Clear
2:00 AM 32.0 °F - 26.6 °F 80% 30.33 in 5.0 mi Variable 2.3 mph - N/A   Unknown
2:30 AM 33.8 °F - 28.4 °F 81% 30.33 in 5.0 mi Variable 1.2 mph - N/A   Unknown
3:00 AM 33.8 °F - 28.4 °F 81% 30.33 in 4.3 mi Calm Calm - N/A   Partly Cloudy
3:30 AM 33.8 °F - 28.4 °F 81% 30.30 in 4.3 mi Calm Calm - N/A   Scattered Clouds
4:00 AM 32.0 °F - 26.6 °F 80% 30.30 in 3.7 mi Variable 2.3 mph - N/A   Scattered Clouds
4:30 AM 32.0 °F - 28.4 °F 87% 30.30 in 3.7 mi Variable 2.3 mph - N/A   Mostly Cloudy
5:00 AM 32.0 °F - 28.4 °F 87% 30.30 in 3.7 mi Calm Calm - N/A   Mostly Cloudy
5:30 AM 32.0 °F - 28.4 °F 87% 30.30 in 3.1 mi Variable 2.3 mph - N/A   Mostly Cloudy
6:00 AM 32.0 °F 28.7 °F 28.4 °F 87% 30.30 in 3.1 mi NNE 3.5 mph - N/A   Mostly Cloudy
6:30 AM 32.0 °F 27.5 °F 28.4 °F 87% 30.30 in - NNE 4.6 mph - N/A   Mostly Cloudy
7:00 AM 32 °F - 28 °F 81% 30.37 in 2 mi ENE 6.7 mph - -   Mist
7:00 AM 32.0 °F 27.5 °F 28.4 °F 87% 30.30 in 1.9 mi ENE 4.6 mph - N/A   Mostly Cloudy
7:30 AM 32.0 °F 27.5 °F 30.2 °F 93% 30.30 in 2.2 mi East 4.6 mph - N/A   Mostly Cloudy
8:00 AM 33.8 °F 27.7 °F 30.2 °F 87% 30.30 in 2.2 mi East 6.9 mph - N/A   Mostly Cloudy
8:30 AM 33.8 °F 27.7 °F 30.2 °F 87% 30.33 in - East 6.9 mph - N/A   Mostly Cloudy
9:00 AM 35.6 °F 30.7 °F 30.2 °F 81% 30.33 in 2.2 mi ENE 5.8 mph - N/A   Mostly Cloudy
9:30 AM 35.6 °F 29.2 °F 32.0 °F 87% 30.30 in - ENE 8.1 mph - N/A   Mostly Cloudy
10:00 AM 37.4 °F 30.8 °F 32.0 °F 81% 30.30 in 2.5 mi ENE 9.2 mph - N/A   Mostly Cloudy
10:30 AM 37.4 °F 29.8 °F 32.0 °F 81% 30.30 in 2.5 mi East 11.5 mph - N/A   Mostly Cloudy
10:43 AM 39.2 °F 31.2 °F 32.0 °F 75% 30.30 in 3.1 mi East 13.8 mph - N/A   Mostly Cloudy
11:00 AM 39.2 °F 31.6 °F 32.0 °F 75% 30.30 in 3.1 mi East 12.7 mph - N/A   Mostly Cloudy
11:30 AM 41.0 °F 34.3 °F 32.0 °F 70% 30.30 in 3.7 mi East 11.5 mph - N/A   Mostly Cloudy
12:00 PM 41.0 °F 33.9 °F 32.0 °F 70% 30.30 in 5.0 mi East 12.7 mph - N/A   Mostly Cloudy
12:30 PM 41.0 °F 33.5 °F 32.0 °F 70% 30.27 in 5.6 mi East 13.8 mph - N/A   Mostly Cloudy
1:00 PM 41 °F - 30 °F 55% 30.31 in 6 mi East 11.2 mph - -   Mostly Cloudy
1:00 PM 41.0 °F 34.3 °F 32.0 °F 70% 30.27 in 6.2 mi East 11.5 mph - N/A   Mostly Cloudy
1:30 PM 42.8 °F 37.0 °F 32.0 °F 66% 30.24 in 6.2 mi East 10.4 mph - N/A   Mostly Cloudy
2:00 PM 42.8 °F 37.5 °F 32.0 °F 66% 30.24 in 6.2 mi East 9.2 mph - N/A   Partly Cloudy
2:30 PM 44.6 °F 39.7 °F 30.2 °F 57% 30.24 in - East 9.2 mph - N/A   Clear
3:00 PM 44.6 °F 40.7 °F 32.0 °F 61% 30.24 in - East 6.9 mph - N/A   Clear
3:30 PM 44.6 °F 41.4 °F 32.0 °F 61% 30.21 in - ENE 5.8 mph - N/A   Clear
4:00 PM 44.6 °F 42.2 °F 32.0 °F 61% 30.21 in - East 4.6 mph - N/A   Clear
4:30 PM 42.8 °F 39.3 °F 32.0 °F 66% 30.21 in - ENE 5.8 mph - N/A   Clear
5:00 PM 41.0 °F 37.1 °F 32.0 °F 70% 30.21 in - ENE 5.8 mph - N/A   Clear
5:30 PM 41.0 °F 37.1 °F 30.2 °F 65% 30.18 in - East 5.8 mph - N/A   Clear
6:00 PM 39.2 °F 35.0 °F 32.0 °F 75% 30.18 in - NE 5.8 mph - N/A   Clear
6:30 PM 39.2 °F 35.9 °F 30.2 °F 70% 30.18 in 5.0 mi ENE 4.6 mph - N/A   Unknown
7:00 PM 38 °F - 30 °F 63% 30.24 in 5 mi NE 6.7 mph - -   Mist
7:00 PM 39.2 °F 35.0 °F 30.2 °F 70% 30.18 in 5.0 mi NNE 5.8 mph - N/A   Partly Cloudy
7:30 PM 37.4 °F 33.8 °F 30.2 °F 75% 30.18 in 5.6 mi ENE 4.6 mph - N/A   Partly Cloudy
8:00 PM 37.4 °F 33.8 °F 30.2 °F 75% 30.18 in 5.0 mi NE 4.6 mph - N/A   Mostly Cloudy
8:30 PM 37.4 °F - 32.0 °F 81% 30.18 in 5.0 mi NNE 1.2 mph - N/A   Mostly Cloudy
9:00 PM 37.4 °F - 32.0 °F 81% 30.15 in 5.0 mi Variable 2.3 mph - N/A   Mostly Cloudy
9:30 PM 37.4 °F - 32.0 °F 81% 30.15 in 5.0 mi Variable 2.3 mph - N/A   Mostly Cloudy
10:00 PM 39.2 °F - 32.0 °F 75% 30.15 in 3.7 mi Variable 2.3 mph - N/A   Overcast
10:30 PM 37.4 °F - 32.0 °F 81% 30.15 in 3.7 mi East 2.3 mph - N/A   Overcast
11:00 PM 37.4 °F - 32.0 °F 81% 30.15 in 3.7 mi Variable 2.3 mph - N/A   Overcast
11:30 PM 37.4 °F - 32.0 °F 81% 30.15 in 3.7 mi Calm Calm - N/A   Overcast